GSAT-11

Last updated on Sat Apr 13 2024 01:02:39 GMT+0100 (British Summer Time)

1 43824U 18100B 24103.39227815 -.00000086 00000+0 00000+0 0 9991 2 43824 0.0163 178.9400 0006882 240.6732 356.6691 1.00271296 19497
UTC large
Height (km)
Speed (km/s)
/
Latitude / Longitude
Inclination (degrees)
Orbital Period (minutes)
Azimuth
Elevation
Range (km)
Doppler Factor

Next 0 passes for location: London (51.5072 / 0.1276)

Sorry there are no passes over London.